Flag for U.S.A. Weather past 2 weeks in San Buenaventura, California, U.S.A.

Now
67 °F

Sunny.


Feels Like: 67 °F
Forecast: 54 / 66 °F
Wind: 13 mph from West

Location: Oxnard Airport

Current Time: May 25, 2015 at 5:57:09 PM

Latest Report: May 25, 2015 at 4:51 PM


Visibility: 10 mi

Pressure: 29.96 "Hg

Humidity: 61%

Dew point: 53 °F

Location of San BuenaventuraLocation

Historic Weather in San Buenaventura — Graph

°F

San Buenaventura temperature yesterday

Maximum temperature yesterday: 67 °F (at 11:51 AM)
Minimum temperature yesterday: 55 °F (at 3:51 AM)
Average temperature yesterday: 61 °F

Past Weeks' High & Low Weather Summary

 TemperatureHumidityPressure
High69 °F (May 22, 2:51 PM)87% (May 10, 8:51 PM)30.09 "Hg (May 10, 8:51 PM)
Low51 °F (May 12, 4:51 AM)51% (May 12, 12:51 PM)29.81 "Hg (May 11, 6:51 PM)
Average61 °F71%29.96 "Hg
* Reported May 10 4:51 PM — May 25 4:51 PM, San Buenaventura, Weather by CustomWeather, © 2015

Note: Actual official high and low records may vary slightly from our data, if they occured in-between our weather recording intervals... More about our weather records

Advertising

San Buenaventura weather history for previous 24 hours

 ConditionsComfort  
Time TempWeatherWind HumidityBarometerVisibility
4:51 PM
Mon, May 25
67 °FSunny.13 mph61%29.96 "Hg10 mi
3:51 PM66 °FSunny.9 mph63%29.97 "Hg10 mi
2:51 PM66 °FPassing clouds.9 mph63%29.98 "Hg10 mi
1:51 PM66 °FScattered clouds.9 mph63%29.99 "Hg10 mi
12:51 PM66 °FOvercast.7 mph63%30.00 "Hg10 mi
11:51 AM64 °FOvercast.6 mph68%30.01 "Hg10 mi
10:51 AM64 °FOvercast.10 mph68%30.00 "Hg10 mi
9:51 AM63 °FOvercast.6 mph68%29.99 "Hg10 mi
8:51 AM62 °FOvercast.6 mph70%29.99 "Hg10 mi
7:51 AM60 °FOvercast.No wind75%29.98 "Hg9 mi
6:51 AM57 °FOvercast.3 mph83%29.96 "Hg8 mi
6:00 AM56 °FPassing clouds.3 mph84%29.96 "Hg7 mi
4:51 AM57 °FLow clouds.No wind81%29.94 "Hg8 mi
3:51 AM58 °FLow clouds.5 mph81%29.93 "Hg9 mi
2:51 AM58 °FOvercast.3 mph81%29.94 "Hg10 mi
1:51 AM58 °FPassing clouds.No wind81%29.95 "Hg10 mi
12:51 AM58 °FPassing clouds.No wind81%29.95 "Hg10 mi
11:51 PM
Sun, May 24
59 °FOvercast.7 mph81%29.96 "Hg10 mi
11:02 PM59 °FOvercast.8 mph81%29.98 "Hg10 mi
10:51 PM59 °FLow clouds.7 mph81%29.97 "Hg10 mi
9:51 PM58 °FPassing clouds.6 mph84%29.96 "Hg10 mi
8:51 PM59 °FScattered clouds.12 mph81%29.96 "Hg10 mi
7:58 PM60 °FPassing clouds.12 mph78%29.96 "Hg9 mi
6:51 PM63 °FSunny.12 mph70%29.95 "Hg10 mi
5:51 PM66 °FSunny.10 mph56%29.94 "Hg10 mi
Weather by CustomWeather, © 2015

See weather overviewHow to use our weather pages